Time,TemperatureF,DewpointF,PressureIn,WindDirection,WindDirectionDegrees,WindSpeedMPH,WindSpeedGustMPH,Humidity,HourlyPrecipIn,Conditions,Clouds,dailyrainin,SoftwareType,DateUTC
2013-03-17 00:00:00,59.2,44.9,29.83,North,0,0.0,0.0,59,0.00,CLR,,0.00,WeatherDisplay:10.37,2013-03-17 04:00:00,
2013-03-17 00:01:00,59.2,44.9,29.83,North,0,0.0,0.0,59,0.00,CLR,,0.00,WeatherDisplay:10.37,2013-03-17 04:01:00,
2013-03-17 00:02:00,59.2,44.9,29.83,North,0,0.0,0.0,59,0.00,CLR,,0.00,WeatherDisplay:10.37,2013-03-17 04:02:00,
2013-03-17 00:06:00,58.8,45.0,29.83,North,0,0.0,0.0,60,0.00,CLR,,0.00,WeatherDisplay:10.37,2013-03-17 04:06:00,
2013-03-17 00:11:00,58.6,44.8,29.83,North,0,0.0,0.0,60,0.00,CLR,,0.00,WeatherDisplay:10.37,2013-03-17 04:11:00,
2013-03-17 00:16:00,58.3,45.3,29.83,North,0,0.0,0.0,62,0.00,CLR,,0.00,WeatherDisplay:10.37,2013-03-17 04:16:00,
2013-03-17 00:21:00,58.1,45.1,29.83,North,0,0.0,0.0,62,0.00,CLR,,0.00,WeatherDisplay:10.37,2013-03-17 04:21:00,
2013-03-17 00:26:00,57.7,44.8,29.83,North,0,0.0,0.0,62,0.00,CLR,,0.00,WeatherDisplay:10.37,2013-03-17 04:26:00,
2013-03-17 00:32:00,57.4,44.5,29.83,North,0,0.0,0.0,62,0.00,CLR,,0.00,WeatherDisplay:10.37,2013-03-17 04:32:00,
2013-03-17 00:37:00,57.4,45.7,29.83,North,0,0.0,0.0,65,0.00,CLR,,0.00,WeatherDisplay:10.37,2013-03-17 04:37:00,
2013-03-17 00:42:00,57.2,45.9,29.83,North,0,0.0,0.0,66,0.00,CLR,,0.00,WeatherDisplay:10.37,2013-03-17 04:42:00,
2013-03-17 00:47:00,57.0,46.6,29.83,North,0,0.0,0.0,68,0.00,CLR,,0.00,WeatherDisplay:10.37,2013-03-17 04:47:00,
2013-03-17 00:52:00,56.8,47.2,29.83,North,0,0.0,0.0,70,0.00,CLR,,0.00,WeatherDisplay:10.37,2013-03-17 04:52:00,
2013-03-17 00:57:00,56.7,47.0,29.83,North,0,0.0,0.0,70,0.00,CLR,,0.00,WeatherDisplay:10.37,2013-03-17 04:57:00,
2013-03-17 01:02:00,56.7,47.0,29.83,North,0,0.0,0.0,70,0.00,CLR,,0.00,WeatherDisplay:10.37,2013-03-17 05:02:00,
2013-03-17 01:07:00,56.3,47.0,29.83,North,0,0.0,0.0,71,0.00,CLR,,0.00,WeatherDisplay:10.37,2013-03-17 05:07:00,
2013-03-17 01:12:00,56.1,46.8,29.83,North,0,0.0,0.0,71,0.00,CLR,,0.00,WeatherDisplay:10.37,2013-03-17 05:12:00,
2013-03-17 01:17:00,55.9,46.7,29.83,North,0,0.0,0.0,71,0.00,CLR,,0.00,WeatherDisplay:10.37,2013-03-17 05:17:00,
2013-03-17 01:22:00,55.6,46.7,29.83,North,0,0.0,0.0,72,0.00,CLR,,0.00,WeatherDisplay:10.37,2013-03-17 05:22:00,
2013-03-17 01:27:00,55.4,46.9,29.83,North,0,0.0,0.0,73,0.00,CLR,,0.00,WeatherDisplay:10.37,2013-03-17 05:27:00,
2013-03-17 01:32:00,55.0,46.5,29.83,North,0,0.0,0.0,73,0.00,CLR,,0.00,WeatherDisplay:10.37,2013-03-17 05:32:00,
2013-03-17 01:37:00,54.9,46.4,29.83,North,0,0.0,0.0,73,0.00,CLR,,0.00,WeatherDisplay:10.37,2013-03-17 05:37:00,
2013-03-17 01:42:00,54.7,46.6,29.83,North,0,0.0,0.0,74,0.00,CLR,,0.00,WeatherDisplay:10.37,2013-03-17 05:42:00,
2013-03-17 01:47:00,54.5,46.7,29.83,North,0,0.0,0.0,75,0.00,CLR,,0.00,WeatherDisplay:10.37,2013-03-17 05:47:00,
2013-03-17 01:52:00,54.1,46.4,29.83,North,0,0.0,0.0,75,0.00,CLR,,0.00,WeatherDisplay:10.37,2013-03-17 05:52:00,
2013-03-17 01:57:00,54.1,46.7,29.83,North,0,0.0,0.0,76,0.00,CLR,,0.00,WeatherDisplay:10.37,2013-03-17 05:57:00,
2013-03-17 02:02:00,54.0,46.6,29.83,North,0,0.0,0.0,76,0.00,CLR,,0.00,WeatherDisplay:10.37,2013-03-17 06:02:00,
2013-03-17 02:07:00,53.8,46.4,29.83,North,0,0.0,0.0,76,0.00,CLR,,0.00,WeatherDisplay:10.37,2013-03-17 06:07:00,
2013-03-17 02:12:00,53.6,46.2,29.85,North,0,0.0,0.0,76,0.00,CLR,,0.00,WeatherDisplay:10.37,2013-03-17 06:12:00,
2013-03-17 02:17:00,53.6,47.2,29.85,North,0,0.0,0.0,79,0.00,CLR,,0.00,WeatherDisplay:10.37,2013-03-17 06:17:00,
2013-03-17 02:22:00,53.4,47.4,29.85,North,0,0.0,0.0,80,0.00,CLR,,0.00,WeatherDisplay:10.37,2013-03-17 06:22:00,
2013-03-17 02:27:00,53.2,47.2,29.85,North,0,0.0,0.0,80,0.00,CLR,,0.00,WeatherDisplay:10.37,2013-03-17 06:27:00,
2013-03-17 02:32:00,53.1,47.4,29.85,North,0,0.0,0.0,81,0.00,CLR,,0.00,WeatherDisplay:10.37,2013-03-17 06:32:00,
2013-03-17 02:37:00,52.9,47.2,29.85,North,0,0.0,0.0,81,0.00,CLR,,0.00,WeatherDisplay:10.37,2013-03-17 06:37:00,
2013-03-17 02:42:00,52.7,47.0,29.85,North,0,0.0,0.0,81,0.00,CLR,,0.00,WeatherDisplay:10.37,2013-03-17 06:42:00,
2013-03-17 02:47:00,52.5,47.2,29.85,North,0,0.0,0.0,82,0.00,CLR,,0.00,WeatherDisplay:10.37,2013-03-17 06:47:00,
2013-03-17 02:52:00,52.3,47.0,29.85,North,0,0.0,0.0,82,0.00,CLR,,0.00,WeatherDisplay:10.37,2013-03-17 06:52:00,
2013-03-17 02:58:00,52.2,46.8,29.85,North,0,0.0,0.0,82,0.00,CLR,,0.00,WeatherDisplay:10.37,2013-03-17 06:58:00,
2013-03-17 03:03:00,52.0,46.7,29.85,North,0,0.0,0.0,82,0.00,CLR,,0.00,WeatherDisplay:10.37,2013-03-17 07:03:00,
2013-03-17 03:08:00,51.8,46.8,29.85,North,0,0.0,0.0,83,0.00,CLR,,0.00,WeatherDisplay:10.37,2013-03-17 07:08:00,
2013-03-17 03:13:00,51.6,46.6,29.85,North,0,0.0,0.0,83,0.00,CLR,,0.00,WeatherDisplay:10.37,2013-03-17 07:13:00,
2013-03-17 03:18:00,51.6,46.9,29.85,North,0,0.0,0.0,84,0.00,CLR,,0.00,WeatherDisplay:10.37,2013-03-17 07:18:00,
2013-03-17 03:23:00,51.4,46.8,29.85,North,0,0.0,0.0,84,0.00,CLR,,0.00,WeatherDisplay:10.37,2013-03-17 07:23:00,
2013-03-17 03:28:00,51.6,47.3,29.85,North,0,0.0,0.0,85,0.00,CLR,,0.00,WeatherDisplay:10.37,2013-03-17 07:28:00,
2013-03-17 03:33:00,51.6,47.3,29.85,North,0,0.0,0.0,85,0.00,CLR,,0.00,WeatherDisplay:10.37,2013-03-17 07:33:00,
2013-03-17 03:38:00,51.1,46.7,29.85,North,0,0.0,0.0,85,0.00,CLR,,0.00,WeatherDisplay:10.37,2013-03-17 07:38:00,
2013-03-17 03:43:00,50.5,46.2,29.85,North,0,0.0,0.0,85,0.00,CLR,,0.00,WeatherDisplay:10.37,2013-03-17 07:43:00,
2013-03-17 03:48:00,50.5,46.5,29.85,North,0,0.0,0.0,86,0.00,CLR,,0.00,WeatherDisplay:10.37,2013-03-17 07:48:00,
2013-03-17 03:53:00,50.5,46.5,29.85,North,0,0.0,0.0,86,0.00,CLR,,0.00,WeatherDisplay:10.37,2013-03-17 07:53:00,
2013-03-17 03:58:00,50.5,46.5,29.85,North,0,0.0,0.0,86,0.00,CLR,,0.00,WeatherDisplay:10.37,2013-03-17 07:58:00,
2013-03-17 04:03:00,50.4,46.3,29.85,North,0,0.0,0.0,86,0.00,CLR,,0.00,WeatherDisplay:10.37,2013-03-17 08:03:00,
2013-03-17 04:08:00,50.2,46.2,29.85,North,0,0.0,0.0,86,0.00,CLR,,0.00,WeatherDisplay:10.37,2013-03-17 08:08:00,
2013-03-17 04:13:00,50.2,46.5,29.85,North,0,0.0,0.0,87,0.00,CLR,,0.00,WeatherDisplay:10.37,2013-03-17 08:13:00,
2013-03-17 04:18:00,50.4,46.6,29.85,North,0,0.0,0.0,87,0.00,CLR,,0.00,WeatherDisplay:10.37,2013-03-17 08:18:00,
2013-03-17 04:23:00,50.5,47.4,29.85,North,0,0.0,0.0,89,0.00,CLR,,0.00,WeatherDisplay:10.37,2013-03-17 08:23:00,
2013-03-17 04:28:00,50.4,47.2,29.85,North,0,0.0,0.0,89,0.00,CLR,,0.00,WeatherDisplay:10.37,2013-03-17 08:28:00,
2013-03-17 04:33:00,50.2,47.1,29.85,North,0,0.0,0.0,89,0.00,CLR,,0.00,WeatherDisplay:10.37,2013-03-17 08:33:00,
2013-03-17 04:38:00,50.0,46.9,29.85,North,0,0.0,0.0,89,0.00,CLR,,0.00,WeatherDisplay:10.37,2013-03-17 08:38:00,
2013-03-17 04:43:00,50.0,46.9,29.88,North,0,0.0,0.0,89,0.00,CLR,,0.00,WeatherDisplay:10.37,2013-03-17 08:43:00,
2013-03-17 04:48:00,50.0,46.9,29.88,North,0,0.0,0.0,89,0.00,CLR,,0.00,WeatherDisplay:10.37,2013-03-17 08:48:00,
2013-03-17 04:53:00,50.0,47.2,29.88,North,0,0.0,0.0,90,0.00,CLR,,0.00,WeatherDisplay:10.37,2013-03-17 08:53:00,
2013-03-17 04:58:00,50.4,47.5,29.88,North,0,0.0,0.0,90,0.00,CLR,,0.00,WeatherDisplay:10.37,2013-03-17 08:58:00,
2013-03-17 05:03:00,50.2,47.7,29.88,North,0,0.0,0.0,91,0.00,CLR,,0.00,WeatherDisplay:10.37,2013-03-17 09:03:00,
2013-03-17 05:08:00,50.2,47.7,29.88,North,0,0.0,0.0,91,0.00,CLR,,0.00,WeatherDisplay:10.37,2013-03-17 09:08:00,
2013-03-17 05:13:00,50.2,47.7,29.88,North,0,0.0,0.0,91,0.00,CLR,,0.00,WeatherDisplay:10.37,2013-03-17 09:13:00,
2013-03-17 05:18:00,50.4,47.8,29.88,North,0,0.0,0.0,91,0.00,CLR,,0.00,WeatherDisplay:10.37,2013-03-17 09:18:00,
2013-03-17 05:23:00,50.4,47.8,29.88,North,0,0.0,0.0,91,0.00,CLR,,0.00,WeatherDisplay:10.37,2013-03-17 09:23:00,
2013-03-17 05:28:00,50.4,48.1,29.88,North,0,0.0,0.0,92,0.00,CLR,,0.00,WeatherDisplay:10.37,2013-03-17 09:28:00,
2013-03-17 05:33:00,50.4,48.1,29.88,North,0,0.0,0.0,92,0.00,CLR,,0.00,WeatherDisplay:10.37,2013-03-17 09:33:00,
2013-03-17 05:38:00,50.7,48.5,29.88,North,0,0.0,0.0,92,0.00,CLR,,0.00,WeatherDisplay:10.37,2013-03-17 09:38:00,
2013-03-17 05:43:00,51.4,49.5,29.88,North,0,0.0,0.0,93,0.00,CLR,,0.00,WeatherDisplay:10.37,2013-03-17 09:43:00,
2013-03-17 05:48:00,51.6,49.7,29.88,North,0,0.0,0.0,93,0.00,CLR,,0.00,WeatherDisplay:10.37,2013-03-17 09:48:00,
2013-03-17 05:53:00,51.8,49.8,29.88,North,0,0.0,0.0,93,0.00,CLR,,0.00,WeatherDisplay:10.37,2013-03-17 09:53:00,
2013-03-17 05:58:00,52.9,51.2,29.91,North,0,0.0,0.0,94,0.00,CLR,,0.00,WeatherDisplay:10.37,2013-03-17 09:58:00,
2013-03-17 06:03:00,53.1,51.4,29.91,North,0,0.0,0.0,94,0.00,CLR,,0.00,WeatherDisplay:10.37,2013-03-17 10:03:00,
2013-03-17 06:08:00,53.2,51.6,29.91,North,0,0.0,0.0,94,0.00,CLR,,0.00,WeatherDisplay:10.37,2013-03-17 10:08:00,
2013-03-17 06:13:00,53.4,51.7,29.91,West,270,0.0,0.0,94,0.00,CLR,,0.00,WeatherDisplay:10.37,2013-03-17 10:13:00,
2013-03-17 06:18:00,53.6,51.9,29.91,NE,45,0.0,0.0,94,0.00,CLR,,0.00,WeatherDisplay:10.37,2013-03-17 10:18:00,
2013-03-17 06:23:00,53.8,52.1,29.91,SE,135,0.0,0.0,94,0.00,CLR,,0.00,WeatherDisplay:10.37,2013-03-17 10:23:00,
2013-03-17 06:28:00,54.0,52.3,29.91,SE,135,0.0,0.0,94,0.00,CLR,,0.00,WeatherDisplay:10.37,2013-03-17 10:28:00,
2013-03-17 06:33:00,54.0,52.3,29.91,ESE,112,0.0,0.0,94,0.00,CLR,,0.00,WeatherDisplay:10.37,2013-03-17 10:33:00,
2013-03-17 06:38:00,54.0,52.3,29.91,ESE,112,0.0,0.0,94,0.00,CLR,,0.00,WeatherDisplay:10.37,2013-03-17 10:38:00,
2013-03-17 06:43:00,54.0,52.3,29.91,NNW,338,0.0,0.0,94,0.00,CLR,,0.00,WeatherDisplay:10.37,2013-03-17 10:43:00,
2013-03-17 06:48:00,54.0,52.3,29.91,NNW,338,0.0,0.0,94,0.00,CLR,,0.00,WeatherDisplay:10.37,2013-03-17 10:48:00,
2013-03-17 06:53:00,54.0,52.3,29.91,ESE,112,0.0,0.0,94,0.00,CLR,,0.00,WeatherDisplay:10.37,2013-03-17 10:53:00,
2013-03-17 06:58:00,54.0,52.3,29.94,West,270,0.0,0.0,94,0.00,CLR,,0.00,WeatherDisplay:10.37,2013-03-17 10:58:00,
2013-03-17 07:03:00,54.0,52.3,29.94,SE,135,0.0,0.0,94,0.00,CLR,,0.00,WeatherDisplay:10.37,2013-03-17 11:03:00,
2013-03-17 07:08:00,54.0,52.3,29.94,ESE,112,0.0,0.0,94,0.00,CLR,,0.00,WeatherDisplay:10.37,2013-03-17 11:08:00,
2013-03-17 07:13:00,54.0,52.3,29.94,East,90,0.0,0.0,94,0.00,CLR,,0.00,WeatherDisplay:10.37,2013-03-17 11:13:00,
2013-03-17 07:18:00,54.0,52.3,29.94,East,90,0.0,0.0,94,0.00,CLR,,0.00,WeatherDisplay:10.37,2013-03-17 11:18:00,
2013-03-17 07:23:00,54.0,52.3,29.94,WNW,292,0.0,0.0,94,0.00,CLR,,0.00,WeatherDisplay:10.37,2013-03-17 11:23:00,
2013-03-17 07:28:00,54.0,52.6,29.94,WNW,292,0.0,0.0,95,0.00,CLR,,0.00,WeatherDisplay:10.37,2013-03-17 11:28:00,
2013-03-17 07:33:00,53.8,52.4,29.94,WNW,292,0.0,0.0,95,0.00,CLR,,0.00,WeatherDisplay:10.37,2013-03-17 11:33:00,
2013-03-17 07:38:00,53.8,52.1,29.94,East,90,0.0,0.0,94,0.00,CLR,,0.00,WeatherDisplay:10.37,2013-03-17 11:38:00,
2013-03-17 07:43:00,53.6,51.9,29.94,SE,135,0.0,0.0,94,0.00,CLR,,0.00,WeatherDisplay:10.37,2013-03-17 11:43:00,
2013-03-17 07:48:00,53.6,51.9,29.94,SE,135,0.0,0.0,94,0.00,CLR,,0.00,WeatherDisplay:10.37,2013-03-17 11:48:00,
2013-03-17 07:53:00,53.4,51.7,29.94,SE,135,0.0,0.0,94,0.00,CLR,,0.00,WeatherDisplay:10.37,2013-03-17 11:53:00,
2013-03-17 07:58:00,53.4,51.4,29.94,SE,135,0.0,0.0,93,0.00,CLR,,0.00,WeatherDisplay:10.37,2013-03-17 11:58:00,
2013-03-17 08:03:00,53.2,51.0,29.94,SE,135,0.0,0.0,92,0.00,CLR,,0.00,WeatherDisplay:10.37,2013-03-17 12:03:00,
2013-03-17 08:08:00,53.1,50.8,29.94,SE,135,0.0,0.0,92,0.00,CLR,,0.00,WeatherDisplay:10.37,2013-03-17 12:08:00,
2013-03-17 08:13:00,53.1,50.5,29.94,SE,135,0.0,0.0,91,0.00,CLR,,0.00,WeatherDisplay:10.37,2013-03-17 12:13:00,
2013-03-17 08:18:00,53.1,50.2,29.94,ESE,112,0.0,0.0,90,0.00,CLR,,0.00,WeatherDisplay:10.37,2013-03-17 12:18:00,
2013-03-17 08:23:00,53.1,49.6,29.94,ENE,68,0.0,0.0,88,0.00,CLR,,0.00,WeatherDisplay:10.37,2013-03-17 12:23:00,
2013-03-17 08:28:00,53.1,49.3,29.94,SSE,158,0.0,0.0,87,0.00,CLR,,0.00,WeatherDisplay:10.37,2013-03-17 12:28:00,
2013-03-17 08:33:00,53.1,49.0,29.94,SE,135,0.0,0.0,86,0.00,CLR,,0.00,WeatherDisplay:10.37,2013-03-17 12:33:00,
2013-03-17 08:38:00,52.9,48.2,29.94,ESE,112,0.0,0.0,84,0.00,CLR,,0.00,WeatherDisplay:10.37,2013-03-17 12:38:00,
2013-03-17 08:43:00,52.7,47.7,29.97,NE,45,0.0,0.0,83,0.00,CLR,,0.00,WeatherDisplay:10.37,2013-03-17 12:43:00,
2013-03-17 08:48:00,52.5,47.2,29.97,NW,315,0.0,0.0,82,0.00,CLR,,0.00,WeatherDisplay:10.37,2013-03-17 12:48:00,
2013-03-17 08:53:00,52.3,46.7,29.97,SSE,158,0.0,0.0,81,0.00,CLR,,0.00,WeatherDisplay:10.37,2013-03-17 12:53:00,
2013-03-17 08:58:00,52.0,46.0,29.97,NNW,338,0.0,0.0,80,0.00,CLR,,0.00,WeatherDisplay:10.37,2013-03-17 12:58:00,
2013-03-17 09:03:00,51.8,45.8,29.97,North,0,2.3,0.0,80,0.00,CLR,,0.00,WeatherDisplay:10.37,2013-03-17 13:03:00,
2013-03-17 09:08:00,52.0,45.7,29.97,SE,135,0.0,0.0,79,0.00,CLR,,0.00,WeatherDisplay:10.37,2013-03-17 13:08:00,
2013-03-17 09:13:00,51.8,45.2,29.97,SE,135,0.0,0.0,78,0.00,CLR,,0.00,WeatherDisplay:10.37,2013-03-17 13:13:00,
2013-03-17 09:18:00,51.8,45.2,29.97,ESE,112,0.0,0.0,78,0.00,CLR,,0.00,WeatherDisplay:10.37,2013-03-17 13:18:00,
2013-03-17 09:23:00,51.8,45.2,29.97,SE,135,0.0,0.0,78,0.00,CLR,,0.00,WeatherDisplay:10.37,2013-03-17 13:23:00,
2013-03-17 09:28:00,51.8,45.2,30.00,NW,315,0.0,0.0,78,0.00,CLR,,0.00,WeatherDisplay:10.37,2013-03-17 13:28:00,
2013-03-17 09:33:00,51.6,45.0,30.00,WSW,248,0.0,0.0,78,0.00,CLR,,0.00,WeatherDisplay:10.37,2013-03-17 13:33:00,
2013-03-17 09:38:00,51.6,45.0,30.00,ESE,112,0.0,0.0,78,0.00,CLR,,0.00,WeatherDisplay:10.37,2013-03-17 13:38:00,
2013-03-17 09:43:00,51.4,44.8,30.00,NW,315,0.0,0.0,78,0.00,CLR,,0.00,WeatherDisplay:10.37,2013-03-17 13:43:00,
2013-03-17 09:48:00,51.6,45.0,30.00,NW,315,0.0,0.0,78,0.00,CLR,,0.00,WeatherDisplay:10.37,2013-03-17 13:48:00,
2013-03-17 09:53:00,51.3,44.6,30.00,NW,315,0.0,0.0,78,0.00,CLR,,0.00,WeatherDisplay:10.37,2013-03-17 13:53:00,
2013-03-17 09:58:00,51.1,44.5,30.00,SSE,158,0.0,0.0,78,0.00,CLR,,0.00,WeatherDisplay:10.37,2013-03-17 13:58:00,
2013-03-17 10:03:00,51.3,44.6,30.00,South,180,0.0,0.0,78,0.00,CLR,,0.00,WeatherDisplay:10.37,2013-03-17 14:03:00,
2013-03-17 10:08:00,51.4,44.5,30.00,NNW,338,0.0,0.0,77,0.00,CLR,,0.00,WeatherDisplay:10.37,2013-03-17 14:08:00,
2013-03-17 10:13:00,51.6,44.3,30.00,West,270,0.0,0.0,76,0.00,CLR,,0.00,WeatherDisplay:10.37,2013-03-17 14:13:00,
2013-03-17 10:18:00,51.8,43.8,30.00,NNW,338,0.0,0.0,74,0.00,CLR,,0.00,WeatherDisplay:10.37,2013-03-17 14:18:00,
2013-03-17 10:23:00,52.2,43.4,30.00,WNW,292,0.0,0.0,72,0.00,CLR,,0.00,WeatherDisplay:10.37,2013-03-17 14:23:00,
2013-03-17 10:28:00,52.5,43.4,30.00,SE,135,0.0,0.0,71,0.00,CLR,,0.00,WeatherDisplay:10.37,2013-03-17 14:28:00,
2013-03-17 10:33:00,52.9,43.0,30.00,SE,135,0.0,0.0,69,0.00,CLR,,0.00,WeatherDisplay:10.37,2013-03-17 14:33:00,
2013-03-17 10:38:00,53.1,42.8,30.00,ENE,68,0.0,0.0,68,0.00,CLR,,0.00,WeatherDisplay:10.37,2013-03-17 14:38:00,
2013-03-17 10:43:00,53.2,42.6,30.03,ESE,112,0.0,0.0,67,0.00,CLR,,0.00,WeatherDisplay:10.37,2013-03-17 14:43:00,
2013-03-17 10:48:00,54.0,42.5,30.03,ESE,112,0.0,0.0,65,0.00,CLR,,0.00,WeatherDisplay:10.37,2013-03-17 14:48:00,
2013-03-17 10:53:00,54.7,41.9,30.03,SE,135,0.0,0.0,62,0.00,CLR,,0.00,WeatherDisplay:10.37,2013-03-17 14:53:00,
2013-03-17 10:59:00,54.9,40.8,30.03,ESE,112,0.0,0.0,59,0.00,CLR,,0.00,WeatherDisplay:10.37,2013-03-17 14:59:00,
2013-03-17 11:04:00,55.2,40.7,30.03,ESE,112,0.0,0.0,58,0.00,CLR,,0.00,WeatherDisplay:10.37,2013-03-17 15:04:00,
2013-03-17 11:09:00,55.6,40.6,30.03,ESE,112,0.0,0.0,57,0.00,CLR,,0.00,WeatherDisplay:10.37,2013-03-17 15:09:00,
2013-03-17 11:14:00,55.8,39.4,30.03,WNW,292,3.5,0.0,54,0.00,CLR,,0.00,WeatherDisplay:10.37,2013-03-17 15:14:00,
2013-03-17 11:19:00,55.9,39.0,30.03,East,90,2.3,0.0,53,0.00,CLR,,0.00,WeatherDisplay:10.37,2013-03-17 15:19:00,
2013-03-17 11:24:00,56.5,39.1,30.03,ESE,112,0.0,0.0,52,0.00,CLR,,0.00,WeatherDisplay:10.37,2013-03-17 15:24:00,
2013-03-17 11:29:00,56.8,38.4,30.03,NNW,338,0.0,0.0,50,0.00,CLR,,0.00,WeatherDisplay:10.37,2013-03-17 15:29:00,
2013-03-17 11:34:00,56.8,37.9,30.03,SE,135,2.3,0.0,49,0.00,CLR,,0.00,WeatherDisplay:10.37,2013-03-17 15:34:00,
2013-03-17 11:39:00,56.7,36.6,30.03,NW,315,0.0,0.0,47,0.00,CLR,,0.00,WeatherDisplay:10.37,2013-03-17 15:39:00,
2013-03-17 11:44:00,57.0,37.0,30.03,ESE,112,0.0,0.0,47,0.00,CLR,,0.00,WeatherDisplay:10.37,2013-03-17 15:44:00,
2013-03-17 11:49:00,57.0,36.4,30.03,SE,135,0.0,0.0,46,0.00,CLR,,0.00,WeatherDisplay:10.37,2013-03-17 15:49:00,
2013-03-17 11:54:00,56.7,36.1,30.03,NW,315,0.0,0.0,46,0.00,CLR,,0.00,WeatherDisplay:10.37,2013-03-17 15:54:00,
2013-03-17 11:59:00,57.0,36.4,30.03,SE,135,0.0,0.0,46,0.00,CLR,,0.00,WeatherDisplay:10.37,2013-03-17 15:59:00,
2013-03-17 12:04:00,57.2,36.0,30.03,SSE,158,3.6,0.0,45,0.00,CLR,,0.00,WeatherDisplay:10.37,2013-03-17 16:04:00,
2013-03-17 12:09:00,57.0,35.9,30.03,SE,135,0.0,0.0,45,0.00,CLR,,0.00,WeatherDisplay:10.37,2013-03-17 16:09:00,
2013-03-17 12:14:00,57.9,36.1,30.03,SE,135,0.0,0.0,44,0.00,CLR,,0.00,WeatherDisplay:10.37,2013-03-17 16:14:00,
2013-03-17 12:19:00,57.0,34.1,30.03,WSW,248,4.6,4.6,42,0.00,CLR,,0.00,WeatherDisplay:10.37,2013-03-17 16:19:00,
2013-03-17 12:24:00,57.2,34.3,30.03,South,180,0.0,0.0,42,0.00,CLR,,0.00,WeatherDisplay:10.37,2013-03-17 16:24:00,
2013-03-17 12:29:00,56.1,33.3,30.03,NE,45,2.3,0.0,42,0.00,CLR,,0.00,WeatherDisplay:10.37,2013-03-17 16:29:00,
2013-03-17 12:34:00,56.8,34.0,30.03,SSW,202,0.0,0.0,42,0.00,CLR,,0.00,WeatherDisplay:10.37,2013-03-17 16:34:00,
2013-03-17 12:39:00,56.7,34.4,30.03,WNW,292,0.0,0.0,43,0.00,CLR,,0.00,WeatherDisplay:10.37,2013-03-17 16:39:00,
2013-03-17 12:44:00,55.9,33.2,30.03,ESE,112,3.5,3.5,42,0.00,CLR,,0.00,WeatherDisplay:10.37,2013-03-17 16:44:00,
2013-03-17 12:49:00,55.9,34.3,30.03,WSW,248,3.5,3.5,44,0.00,CLR,,0.00,WeatherDisplay:10.37,2013-03-17 16:49:00,
2013-03-17 12:54:00,54.7,33.7,30.03,NNE,22,0.0,0.0,45,0.00,CLR,,0.00,WeatherDisplay:10.37,2013-03-17 16:54:00,
2013-03-17 12:59:00,54.7,34.3,30.03,SE,135,0.0,0.0,46,0.00,CLR,,0.00,WeatherDisplay:10.37,2013-03-17 16:59:00,
2013-03-17 13:04:00,54.3,34.0,30.03,NNW,338,0.0,0.0,46,0.00,CLR,,0.00,WeatherDisplay:10.37,2013-03-17 17:04:00,
2013-03-17 13:09:00,53.8,33.5,30.03,NNW,338,2.3,0.0,46,0.00,CLR,,0.00,WeatherDisplay:10.37,2013-03-17 17:09:00,
2013-03-17 13:14:00,54.0,33.6,30.03,ENE,68,0.0,0.0,46,0.00,CLR,,0.00,WeatherDisplay:10.37,2013-03-17 17:14:00,
2013-03-17 13:19:00,53.6,33.3,30.03,North,0,0.0,0.0,46,0.00,CLR,,0.00,WeatherDisplay:10.37,2013-03-17 17:19:00,
2013-03-17 13:24:00,53.8,33.5,30.03,SSE,158,3.5,0.0,46,0.00,CLR,,0.00,WeatherDisplay:10.37,2013-03-17 17:24:00,
2013-03-17 13:29:00,53.1,33.3,30.03,ESE,112,0.0,0.0,47,0.00,CLR,,0.00,WeatherDisplay:10.37,2013-03-17 17:29:00,
2013-03-17 13:34:00,53.4,34.2,30.03,SE,135,0.0,0.0,48,0.00,CLR,,0.00,WeatherDisplay:10.37,2013-03-17 17:34:00,
2013-03-17 13:39:00,53.2,33.5,30.03,SSE,158,2.3,0.0,47,0.00,CLR,,0.00,WeatherDisplay:10.37,2013-03-17 17:39:00,
2013-03-17 13:44:00,52.9,33.2,30.03,NW,315,4.6,0.0,47,0.00,CLR,,0.00,WeatherDisplay:10.37,2013-03-17 17:44:00,
2013-03-17 13:49:00,52.9,33.2,30.03,NNW,338,3.5,0.0,47,0.00,CLR,,0.00,WeatherDisplay:10.37,2013-03-17 17:49:00,
2013-03-17 13:54:00,53.4,33.7,30.03,SE,135,0.0,0.0,47,0.00,CLR,,0.00,WeatherDisplay:10.37,2013-03-17 17:54:00,
2013-03-17 13:59:00,53.4,33.7,30.03,WSW,248,0.0,0.0,47,0.00,CLR,,0.00,WeatherDisplay:10.37,2013-03-17 17:59:00,
2013-03-17 14:04:00,53.6,33.3,30.03,ESE,112,3.5,0.0,46,0.00,CLR,,0.00,WeatherDisplay:10.37,2013-03-17 18:04:00,
2013-03-17 14:09:00,53.4,33.7,30.03,WSW,248,0.0,0.0,47,0.00,CLR,,0.00,WeatherDisplay:10.37,2013-03-17 18:09:00,
2013-03-17 14:14:00,53.6,33.3,30.03,ESE,112,4.6,4.6,46,0.00,CLR,,0.00,WeatherDisplay:10.37,2013-03-17 18:14:00,
2013-03-17 14:19:00,52.9,32.6,30.03,NW,315,0.0,0.0,46,0.00,CLR,,0.00,WeatherDisplay:10.37,2013-03-17 18:19:00,
2013-03-17 14:24:00,53.2,33.0,30.03,ESE,112,0.0,0.0,46,0.00,CLR,,0.00,WeatherDisplay:10.37,2013-03-17 18:24:00,
2013-03-17 14:29:00,53.1,32.8,30.03,North,0,0.0,0.0,46,0.00,CLR,,0.00,WeatherDisplay:10.37,2013-03-17 18:29:00,
2013-03-17 14:34:00,53.2,33.0,30.03,NNW,338,0.0,0.0,46,0.00,CLR,,0.00,WeatherDisplay:10.37,2013-03-17 18:34:00,
2013-03-17 14:39:00,53.2,33.0,30.03,ESE,112,0.0,0.0,46,0.00,CLR,,0.00,WeatherDisplay:10.37,2013-03-17 18:39:00,
2013-03-17 14:44:00,53.2,33.0,30.03,South,180,0.0,0.0,46,0.00,CLR,,0.00,WeatherDisplay:10.37,2013-03-17 18:44:00,
2013-03-17 14:49:00,52.7,32.5,30.03,WNW,292,0.0,0.0,46,0.00,CLR,,0.00,WeatherDisplay:10.37,2013-03-17 18:49:00,
2013-03-17 14:54:00,52.9,32.6,30.03,SE,135,2.2,0.0,46,0.00,CLR,,0.00,WeatherDisplay:10.37,2013-03-17 18:54:00,
2013-03-17 14:59:00,52.7,32.5,30.03,ESE,112,4.0,0.0,46,0.00,CLR,,0.00,WeatherDisplay:10.37,2013-03-17 18:59:00,
2013-03-17 15:04:00,52.2,32.0,30.03,SE,135,2.3,0.0,46,0.00,CLR,,0.00,WeatherDisplay:10.37,2013-03-17 19:04:00,
2013-03-17 15:09:00,52.2,32.0,30.03,ESE,112,0.0,0.0,46,0.00,CLR,,0.00,WeatherDisplay:10.37,2013-03-17 19:09:00,
2013-03-17 15:14:00,51.8,32.2,30.03,SE,135,0.0,0.0,47,0.00,CLR,,0.00,WeatherDisplay:10.37,2013-03-17 19:14:00,
2013-03-17 15:19:00,51.6,32.0,30.03,SSE,158,0.0,0.0,47,0.00,CLR,,0.00,WeatherDisplay:10.37,2013-03-17 19:19:00,
2013-03-17 15:24:00,51.8,32.2,30.03,SE,135,0.0,0.0,47,0.00,CLR,,0.00,WeatherDisplay:10.37,2013-03-17 19:24:00,
2013-03-17 15:29:00,51.4,32.4,30.03,SE,135,3.5,0.0,48,0.00,CLR,,0.00,WeatherDisplay:10.37,2013-03-17 19:29:00,
2013-03-17 15:34:00,51.6,32.6,30.03,SSE,158,2.3,0.0,48,0.00,CLR,,0.00,WeatherDisplay:10.37,2013-03-17 19:34:00,
2013-03-17 15:39:00,51.3,32.2,30.03,South,180,3.5,0.0,48,0.00,CLR,,0.00,WeatherDisplay:10.37,2013-03-17 19:39:00,
2013-03-17 15:44:00,51.6,32.6,30.03,WSW,248,0.0,0.0,48,0.00,CLR,,0.00,WeatherDisplay:10.37,2013-03-17 19:44:00,
2013-03-17 15:49:00,51.6,32.6,30.03,SE,135,0.0,0.0,48,0.00,CLR,,0.00,WeatherDisplay:10.37,2013-03-17 19:49:00,
2013-03-17 15:54:00,51.6,32.6,30.03,SSE,158,0.0,0.0,48,0.00,CLR,,0.00,WeatherDisplay:10.37,2013-03-17 19:54:00,
2013-03-17 15:59:00,51.3,32.2,30.03,ESE,112,0.0,0.0,48,0.00,CLR,,0.00,WeatherDisplay:10.37,2013-03-17 19:59:00,
2013-03-17 16:04:00,50.7,31.2,30.03,ESE,112,0.0,0.0,47,0.00,CLR,,0.00,WeatherDisplay:10.37,2013-03-17 20:04:00,
2013-03-17 16:09:00,50.5,31.6,30.03,ESE,112,0.0,0.0,48,0.00,CLR,,0.00,WeatherDisplay:10.37,2013-03-17 20:09:00,
2013-03-17 16:14:00,50.2,31.2,30.03,NW,315,0.0,0.0,48,0.00,CLR,,0.00,WeatherDisplay:10.37,2013-03-17 20:14:00,
2013-03-17 16:19:00,50.5,31.6,30.03,ESE,112,0.0,0.0,48,0.00,CLR,,0.00,WeatherDisplay:10.37,2013-03-17 20:19:00,
2013-03-17 16:24:00,50.4,31.4,30.03,ESE,112,2.3,0.0,48,0.00,CLR,,0.00,WeatherDisplay:10.37,2013-03-17 20:24:00,
2013-03-17 16:29:00,50.4,31.4,30.03,NE,45,0.0,0.0,48,0.00,CLR,,0.00,WeatherDisplay:10.37,2013-03-17 20:29:00,
2013-03-17 16:34:00,50.2,31.2,30.03,ESE,112,0.0,0.0,48,0.00,CLR,,0.00,WeatherDisplay:10.37,2013-03-17 20:34:00,
2013-03-17 16:39:00,50.2,31.2,30.03,SE,135,2.3,0.0,48,0.00,CLR,,0.00,WeatherDisplay:10.37,2013-03-17 20:39:00,
2013-03-17 16:44:00,49.6,30.7,30.03,SE,135,0.0,0.0,48,0.00,CLR,,0.00,WeatherDisplay:10.37,2013-03-17 20:44:00,
2013-03-17 16:49:00,49.5,31.1,30.03,SSE,158,0.0,0.0,49,0.00,CLR,,0.00,WeatherDisplay:10.37,2013-03-17 20:49:00,
2013-03-17 16:54:00,49.3,30.9,30.03,SE,135,0.0,0.0,49,0.00,CLR,,0.00,WeatherDisplay:10.37,2013-03-17 20:54:00,
2013-03-17 16:59:00,49.1,30.7,30.03,South,180,0.0,0.0,49,0.00,CLR,,0.00,WeatherDisplay:10.37,2013-03-17 20:59:00,
2013-03-17 17:04:00,49.1,30.7,30.03,SE,135,0.0,0.0,49,0.00,CLR,,0.00,WeatherDisplay:10.37,2013-03-17 21:04:00,
2013-03-17 17:09:00,49.1,31.2,30.03,SE,135,0.0,0.0,50,0.00,CLR,,0.00,WeatherDisplay:10.37,2013-03-17 21:09:00,
2013-03-17 17:14:00,49.1,31.2,30.03,ESE,112,0.0,0.0,50,0.00,CLR,,0.00,WeatherDisplay:10.37,2013-03-17 21:14:00,
2013-03-17 17:19:00,48.9,30.6,30.03,ESE,112,0.0,0.0,49,0.00,CLR,,0.00,WeatherDisplay:10.37,2013-03-17 21:19:00,
2013-03-17 17:24:00,48.7,30.4,30.03,ESE,112,2.3,0.0,49,0.00,CLR,,0.00,WeatherDisplay:10.37,2013-03-17 21:24:00,
2013-03-17 17:29:00,48.7,30.4,30.03,SW,225,2.2,0.0,49,0.00,CLR,,0.00,WeatherDisplay:10.37,2013-03-17 21:29:00,
2013-03-17 17:34:00,48.7,30.9,30.03,NNW,338,2.3,0.0,50,0.00,CLR,,0.00,WeatherDisplay:10.37,2013-03-17 21:34:00,
2013-03-17 17:39:00,48.6,30.7,30.03,NW,315,0.0,0.0,50,0.00,CLR,,0.00,WeatherDisplay:10.37,2013-03-17 21:39:00,
2013-03-17 17:44:00,48.4,30.6,30.03,ESE,112,2.3,0.0,50,0.00,CLR,,0.00,WeatherDisplay:10.37,2013-03-17 21:44:00,
2013-03-17 17:49:00,48.2,30.4,30.03,South,180,0.0,0.0,50,0.00,CLR,,0.00,WeatherDisplay:10.37,2013-03-17 21:49:00,
2013-03-17 17:54:00,48.2,30.4,30.03,SE,135,0.0,0.0,50,0.00,CLR,,0.00,WeatherDisplay:10.37,2013-03-17 21:54:00,
2013-03-17 17:59:00,48.0,30.7,30.03,ESE,112,0.0,0.0,51,0.00,CLR,,0.00,WeatherDisplay:10.37,2013-03-17 21:59:00,
2013-03-17 18:04:00,48.0,30.7,30.03,SE,135,0.0,0.0,51,0.00,CLR,,0.00,WeatherDisplay:10.37,2013-03-17 22:04:00,
2013-03-17 18:09:00,47.8,30.6,30.03,ESE,112,0.0,0.0,51,0.00,CLR,,0.00,WeatherDisplay:10.37,2013-03-17 22:09:00,
2013-03-17 18:14:00,47.5,30.2,30.03,WNW,292,0.0,0.0,51,0.00,CLR,,0.00,WeatherDisplay:10.37,2013-03-17 22:14:00,
2013-03-17 18:19:00,47.3,30.1,30.03,ESE,112,0.0,0.0,51,0.00,CLR,,0.00,WeatherDisplay:10.37,2013-03-17 22:19:00,
2013-03-17 18:24:00,47.3,30.5,30.03,ESE,112,0.0,0.0,52,0.00,CLR,,0.00,WeatherDisplay:10.37,2013-03-17 22:24:00,
2013-03-17 18:29:00,47.3,30.5,30.06,ESE,112,2.2,0.0,52,0.00,CLR,,0.00,WeatherDisplay:10.37,2013-03-17 22:29:00,
2013-03-17 18:34:00,47.1,30.4,30.06,ESE,112,2.3,0.0,52,0.00,CLR,,0.00,WeatherDisplay:10.37,2013-03-17 22:34:00,
2013-03-17 18:39:00,46.9,30.7,30.06,WNW,292,0.0,0.0,53,0.00,CLR,,0.00,WeatherDisplay:10.37,2013-03-17 22:39:00,
2013-03-17 18:44:00,46.6,30.3,30.06,WNW,292,2.3,0.0,53,0.00,CLR,,0.00,WeatherDisplay:10.37,2013-03-17 22:44:00,
2013-03-17 18:49:00,46.6,30.8,30.06,ESE,112,0.0,0.0,54,0.00,CLR,,0.00,WeatherDisplay:10.37,2013-03-17 22:49:00,
2013-03-17 18:54:00,46.2,30.5,30.06,South,180,0.0,0.0,54,0.00,CLR,,0.00,WeatherDisplay:10.37,2013-03-17 22:54:00,
2013-03-17 18:59:00,46.0,30.8,30.06,ESE,112,0.0,0.0,55,0.00,CLR,,0.00,WeatherDisplay:10.37,2013-03-17 22:59:00,
2013-03-17 19:04:00,45.9,30.6,30.06,SE,135,2.3,0.0,55,0.00,CLR,,0.00,WeatherDisplay:10.37,2013-03-17 23:04:00,
2013-03-17 19:09:00,45.9,31.0,30.06,SE,135,0.0,0.0,56,0.00,CLR,,0.00,WeatherDisplay:10.37,2013-03-17 23:09:00,
2013-03-17 19:14:00,45.9,31.0,30.09,ESE,112,0.0,0.0,56,0.00,CLR,,0.00,WeatherDisplay:10.37,2013-03-17 23:14:00,
2013-03-17 19:19:00,45.7,31.3,30.09,SE,135,0.0,0.0,57,0.00,CLR,,0.00,WeatherDisplay:10.37,2013-03-17 23:19:00,
2013-03-17 19:24:00,45.5,31.1,30.09,SE,135,0.0,0.0,57,0.00,CLR,,0.00,WeatherDisplay:10.37,2013-03-17 23:24:00,
2013-03-17 19:29:00,45.5,31.6,30.09,SSE,158,0.0,0.0,58,0.00,CLR,,0.00,WeatherDisplay:10.37,2013-03-17 23:29:00,
2013-03-17 19:34:00,45.5,31.6,30.09,SE,135,0.0,0.0,58,0.00,CLR,,0.00,WeatherDisplay:10.37,2013-03-17 23:34:00,
2013-03-17 19:39:00,45.5,32.0,30.09,SSE,158,0.0,0.0,59,0.00,CLR,,0.00,WeatherDisplay:10.37,2013-03-17 23:39:00,
2013-03-17 19:44:00,45.5,32.0,30.09,SSE,158,0.0,0.0,59,0.00,CLR,,0.00,WeatherDisplay:10.37,2013-03-17 23:44:00,
2013-03-17 19:49:00,45.3,31.8,30.09,SE,135,2.3,0.0,59,0.00,CLR,,0.00,WeatherDisplay:10.37,2013-03-17 23:49:00,
2013-03-17 19:54:00,45.1,31.7,30.09,SE,135,2.3,0.0,59,0.00,CLR,,0.00,WeatherDisplay:10.37,2013-03-17 23:54:00,
2013-03-17 19:59:00,45.1,31.7,30.09,SE,135,0.0,0.0,59,0.00,CLR,,0.00,WeatherDisplay:10.37,2013-03-17 23:59:00,
2013-03-17 20:04:00,44.8,31.7,30.09,ESE,112,0.0,0.0,60,0.00,CLR,,0.00,WeatherDisplay:10.37,2013-03-18 00:04:00,
2013-03-17 20:09:00,44.8,31.7,30.09,NW,315,0.0,0.0,60,0.00,CLR,,0.00,WeatherDisplay:10.37,2013-03-18 00:09:00,
2013-03-17 20:14:00,44.6,32.0,30.09,SSE,158,4.6,4.6,61,0.00,CLR,,0.00,WeatherDisplay:10.37,2013-03-18 00:14:00,
2013-03-17 20:19:00,44.6,32.0,30.09,ESE,112,0.0,0.0,61,0.00,CLR,,0.00,WeatherDisplay:10.37,2013-03-18 00:19:00,
2013-03-17 20:24:00,44.6,32.0,30.09,SSE,158,0.0,0.0,61,0.00,CLR,,0.00,WeatherDisplay:10.37,2013-03-18 00:24:00,
2013-03-17 20:29:00,44.4,32.2,30.09,SSE,158,0.0,0.0,62,0.00,CLR,,0.00,WeatherDisplay:10.37,2013-03-18 00:29:00,
2013-03-17 20:34:00,44.4,32.6,30.09,WSW,248,0.0,0.0,63,0.00,CLR,,0.00,WeatherDisplay:10.37,2013-03-18 00:34:00,
2013-03-17 20:39:00,44.2,32.4,30.09,SE,135,2.3,0.0,63,0.00,CLR,,0.00,WeatherDisplay:10.37,2013-03-18 00:39:00,
2013-03-17 20:44:00,44.2,32.4,30.09,West,270,0.0,0.0,63,0.00,CLR,,0.00,WeatherDisplay:10.37,2013-03-18 00:44:00,
2013-03-17 20:49:00,44.2,32.4,30.09,ESE,112,0.0,0.0,63,0.00,CLR,,0.00,WeatherDisplay:10.37,2013-03-18 00:49:00,
2013-03-17 20:54:00,44.1,32.3,30.09,ESE,112,0.0,0.0,63,0.00,CLR,,0.00,WeatherDisplay:10.37,2013-03-18 00:54:00,
2013-03-17 20:59:00,44.1,32.3,30.12,SE,135,2.3,0.0,63,0.00,CLR,,0.00,WeatherDisplay:10.37,2013-03-18 00:59:00,
2013-03-17 21:04:00,44.1,32.3,30.12,SSE,158,0.0,0.0,63,0.00,CLR,,0.00,WeatherDisplay:10.37,2013-03-18 01:04:00,
2013-03-17 21:09:00,43.9,32.1,30.12,NW,315,0.0,0.0,63,0.00,CLR,,0.00,WeatherDisplay:10.37,2013-03-18 01:09:00,
2013-03-17 21:14:00,43.9,32.5,30.12,ESE,112,2.3,0.0,64,0.00,CLR,,0.00,WeatherDisplay:10.37,2013-03-18 01:14:00,
2013-03-17 21:19:00,43.7,32.3,30.12,SE,135,0.0,0.0,64,0.00,CLR,,0.00,WeatherDisplay:10.37,2013-03-18 01:19:00,
2013-03-17 21:24:00,43.5,32.1,30.12,ESE,112,0.0,0.0,64,0.00,CLR,,0.00,WeatherDisplay:10.37,2013-03-18 01:24:00,
2013-03-17 21:29:00,43.5,32.1,30.12,ESE,112,0.0,0.0,64,0.00,CLR,,0.00,WeatherDisplay:10.37,2013-03-18 01:29:00,
2013-03-17 21:34:00,43.5,32.1,30.12,SSE,158,0.0,0.0,64,0.00,CLR,,0.00,WeatherDisplay:10.37,2013-03-18 01:34:00,
2013-03-17 21:39:00,43.5,32.5,30.12,SE,135,0.0,0.0,65,0.00,CLR,,0.00,WeatherDisplay:10.37,2013-03-18 01:39:00,
2013-03-17 21:44:00,43.5,32.5,30.15,NNE,22,0.0,0.0,65,0.00,CLR,,0.00,WeatherDisplay:10.37,2013-03-18 01:44:00,
2013-03-17 21:49:00,43.5,32.5,30.15,SE,135,0.0,0.0,65,0.00,CLR,,0.00,WeatherDisplay:10.37,2013-03-18 01:49:00,
2013-03-17 21:54:00,43.5,32.9,30.15,SE,135,0.0,0.0,66,0.00,CLR,,0.00,WeatherDisplay:10.37,2013-03-18 01:54:00,
2013-03-17 21:59:00,43.5,32.9,30.15,SE,135,0.0,0.0,66,0.00,CLR,,0.00,WeatherDisplay:10.37,2013-03-18 01:59:00,
2013-03-17 22:04:00,43.3,32.7,30.15,ESE,112,0.0,0.0,66,0.00,CLR,,0.00,WeatherDisplay:10.37,2013-03-18 02:04:00,
2013-03-17 22:09:00,43.3,33.1,30.15,SE,135,0.0,0.0,67,0.00,CLR,,0.00,WeatherDisplay:10.37,2013-03-18 02:09:00,
2013-03-17 22:14:00,43.2,32.9,30.15,ESE,112,0.0,0.0,67,0.00,CLR,,0.00,WeatherDisplay:10.37,2013-03-18 02:14:00,
2013-03-17 22:19:00,43.0,33.1,30.15,ESE,112,0.0,0.0,68,0.00,CLR,,0.00,WeatherDisplay:10.37,2013-03-18 02:19:00,
2013-03-17 22:24:00,42.8,33.3,30.15,ESE,112,0.0,0.0,69,0.00,CLR,,0.00,WeatherDisplay:10.37,2013-03-18 02:24:00,
2013-03-17 22:29:00,42.8,33.7,30.15,NW,315,0.0,0.0,70,0.00,CLR,,0.00,WeatherDisplay:10.37,2013-03-18 02:29:00,
2013-03-17 22:34:00,42.8,33.7,30.15,North,0,0.0,0.0,70,0.00,CLR,,0.00,WeatherDisplay:10.37,2013-03-18 02:34:00,
2013-03-17 22:39:00,42.6,33.9,30.15,SE,135,0.0,0.0,71,0.00,CLR,,0.00,WeatherDisplay:10.37,2013-03-18 02:39:00,
2013-03-17 22:44:00,42.4,34.0,30.15,South,180,0.0,0.0,72,0.00,CLR,,0.00,WeatherDisplay:10.37,2013-03-18 02:44:00,
2013-03-17 22:49:00,42.4,34.4,30.15,SE,135,0.0,0.0,73,0.00,CLR,,0.00,WeatherDisplay:10.37,2013-03-18 02:49:00,
2013-03-17 22:54:00,42.3,34.6,30.15,SE,135,2.3,0.0,74,0.00,CLR,,0.00,WeatherDisplay:10.37,2013-03-18 02:54:00,
2013-03-17 22:59:00,42.3,34.9,30.15,SSE,158,0.0,0.0,75,0.00,CLR,,0.00,WeatherDisplay:10.37,2013-03-18 02:59:00,
2013-03-17 23:04:00,42.1,34.7,30.15,SE,135,0.0,0.0,75,0.00,CLR,,0.00,WeatherDisplay:10.37,2013-03-18 03:04:00,
2013-03-17 23:09:00,41.9,34.9,30.15,SE,135,0.0,0.0,76,0.00,CLR,,0.00,WeatherDisplay:10.37,2013-03-18 03:09:00,
2013-03-17 23:14:00,41.7,35.0,30.15,SE,135,0.0,0.0,77,0.00,CLR,,0.00,WeatherDisplay:10.37,2013-03-18 03:14:00,
2013-03-17 23:19:00,41.7,35.4,30.15,SE,135,0.0,0.0,78,0.00,CLR,,0.00,WeatherDisplay:10.37,2013-03-18 03:19:00,
2013-03-17 23:24:00,41.4,35.7,30.15,WNW,292,0.0,0.0,80,0.00,CLR,,0.00,WeatherDisplay:10.37,2013-03-18 03:24:00,
2013-03-17 23:29:00,41.4,36.0,30.15,ESE,112,0.0,0.0,81,0.00,CLR,,0.00,WeatherDisplay:10.37,2013-03-18 03:29:00,
2013-03-17 23:34:00,41.2,36.1,30.15,SE,135,0.0,0.0,82,0.00,CLR,,0.00,WeatherDisplay:10.37,2013-03-18 03:34:00,
2013-03-17 23:39:00,41.0,36.2,30.15,SE,135,0.0,0.0,83,0.00,CLR,,0.00,WeatherDisplay:10.37,2013-03-18 03:39:00,
2013-03-17 23:44:00,40.8,36.7,30.15,ESE,112,0.0,0.0,85,0.00,CLR,,0.00,WeatherDisplay:10.37,2013-03-18 03:44:00,
2013-03-17 23:49:00,40.8,37.0,30.15,SE,135,0.0,0.0,86,0.00,CLR,,0.00,WeatherDisplay:10.37,2013-03-18 03:49:00,
2013-03-17 23:54:00,40.6,37.1,30.15,SE,135,0.0,0.0,87,0.00,CLR,,0.00,WeatherDisplay:10.37,2013-03-18 03:54:00,
2013-03-17 23:59:00,40.6,37.1,30.15,SE,135,0.0,0.0,87,0.00,CLR,,0.00,WeatherDisplay:10.37,2013-03-18 03:59:00,